Location: Hannover
(52.3723°N, 9.7339°E)
Time: 22:56:52
(UTC+01:00)

ISS - Pass Details

Date: 04 January 2018
Orbit: 402 x 407 km, 51.6° (Epoch: 18 January)

Event Time Altitude Azimuth Distance (km) Brightness Sun altitude
Exits shadow 06:53:39 24° 261° (W) 891 -2.6 -13.8°
Maximum altitude 06:55:29 80° 179° (S) 419 -3.8 -13.5°
Drops below altitude 10° 06:58:48 10° 91° (E) 1,472 0.2 -13.0°
Sets 07:00:53 0° 90° (E) 2,334 1.5 -12.7°
